Charlottesville, VA

11:24 PM EST on January 19, 2018 (GMT -0500)
Charlottesville-Albemarle

Weather History for KCHO - October, 2012

Change the Weather History Date:

Monday, October 1, 2012

  Actual Average Record
Temperature  
Mean Temperature 58 °F 61 °F  
Max Temperature 66 °F 73 °F 94 °F (1941)
Min Temperature 49 °F 49 °F 34 °F (1993)
Degree Days  
Heating Degree Days 7 5  
Month to date heating degree days 7 5  
Since 1 July heating degree days 46 63  
Cooling Degree Days 0 1  
Month to date cooling degree days 0 1  
Year to date cooling degree days 1584 1022  
Growing Degree Days 7 (Base 50)    
Moisture  
Dew Point 52 °F    
Average Humidity 75    
Maximum Humidity 93    
Minimum Humidity 56    
Precipitation  
Precipitation 0.02 in 0.12 in 3.37 in (1959)
Month to date precipitation 0.02 0.12  
Year to date precipitation 28.90 32.74  
Sea Level Pressure  
Sea Level Pressure 29.94 in    
Wind  
Wind Speed 2 mph (North)    
Max Wind Speed 7 mph    
Max Gust Speed 12 mph    
Visibility 9 miles    
Events Rain    
T = Trace of Precipitation, MM = Missing Value Source: NWS Daily Summary

Daily Weather History Graph

Daily Weather History Graph

Search for Another Location

Airport or City:

Trip Planner

Search our weather history database for the weather conditions in past years. The results will help you decide how hot, cold, wet, or windy it might be!

Date:

Astronomy

Oct. 01, 2012 Rise Set
Actual Time 7:09 AM EDT 6:56 PM EDT
Civil Twilight 6:43 AM EDT 7:22 PM EDT
Nautical Twilight 6:13 AM EDT 7:52 PM EDT
Astronomical Twilight 5:42 AM EDT 8:23 PM EDT
Moon 7:34 PM EDT (10/1) 8:35 AM EDT (10/1)
Length of Visible Light 12h 38m
Length of Day
11h 46m
Full, 98% of the Moon is Illuminated
Oct 1
Full
Oct 8
Last Quarter
Oct 15
New
Oct 21
First Quarter
Oct 29
Full

Hourly Weather History & Observations

Time (EDT) Temp. Dew Point Humidity Pressure Visibility Wind Dir Wind Speed Gust Speed Precip Events Conditions
12:53 AM 54.0 °F 48.9 °F 83% 29.90 in 10.0 mi WNW 3.5 mph - N/A   Mostly Cloudy
1:53 AM 53.1 °F 48.0 °F 83% 29.91 in 10.0 mi Calm Calm - N/A   Clear
2:53 AM 51.1 °F 48.0 °F 89% 29.91 in 10.0 mi Calm Calm - N/A   Clear
3:53 AM 52.0 °F 48.9 °F 89% 29.90 in 10.0 mi Calm Calm - N/A   Clear
4:53 AM 48.9 °F 46.9 °F 93% 29.91 in 8.0 mi Calm Calm - N/A   Clear
5:53 AM 50.0 °F 46.9 °F 89% 29.91 in 8.0 mi North 3.5 mph - N/A   Clear
6:53 AM 50.0 °F 48.0 °F 93% 29.92 in 10.0 mi Calm Calm - N/A   Clear
7:53 AM 51.1 °F 48.0 °F 89% 29.93 in 8.0 mi Calm Calm - N/A   Clear
8:53 AM 52.0 °F 48.9 °F 89% 29.96 in 10.0 mi West 3.5 mph - N/A   Clear
9:53 AM 55.9 °F 51.1 °F 84% 29.97 in 10.0 mi Calm Calm - N/A   Clear
10:53 AM 62.1 °F 51.1 °F 67% 29.97 in 10.0 mi NNE 4.6 mph - N/A   Partly Cloudy
11:53 AM 64.9 °F 48.9 °F 56% 29.96 in 10.0 mi ENE 4.6 mph - N/A   Overcast
12:53 PM 66.0 °F 50.0 °F 56% 29.96 in 10.0 mi SSE 6.9 mph - N/A   Overcast
1:53 PM 64.9 °F 51.1 °F 61% 29.94 in 10.0 mi SE 4.6 mph - N/A   Overcast
2:53 PM 64.0 °F 52.0 °F 65% 29.93 in 10.0 mi North 4.6 mph - N/A   Overcast
3:53 PM 63.0 °F 54.0 °F 72% 29.93 in 10.0 mi NNW 3.5 mph - 0.00 in   Overcast
4:53 PM 61.0 °F 54.0 °F 78% 29.94 in 10.0 mi North 3.5 mph - 0.00 in   Overcast
5:53 PM 61.0 °F 54.0 °F 78% 29.94 in 10.0 mi Calm Calm - N/A   Overcast
6:53 PM 59.0 °F 55.9 °F 90% 29.95 in 10.0 mi Calm Calm - 0.00 in Rain Light Rain
7:23 PM 59.0 °F 55.4 °F 88% 29.95 in 10.0 mi Calm Calm - 0.01 in   Overcast
7:53 PM 59.0 °F 55.9 °F 90% 29.95 in 10.0 mi Calm Calm - 0.01 in   Overcast
8:53 PM 59.0 °F 55.9 °F 90% 29.94 in 8.0 mi Calm Calm - 0.00 in Rain Light Rain
9:53 PM 59.0 °F 57.0 °F 93% 29.94 in 6.0 mi Calm Calm - 0.00 in Rain Light Rain
10:53 PM 59.0 °F 57.0 °F 93% 29.94 in 6.0 mi Calm Calm - 0.00 in   Overcast
11:38 PM 59.0 °F 57.2 °F 94% 29.96 in 6.0 mi Calm Calm - 0.00 in Rain Light Rain
11:53 PM 59.0 °F 57.0 °F 93% 29.94 in 4.0 mi Calm Calm - 0.00 in Rain Light Rain